Location: Gallinara
(44.0333°N, 8.2333°E)
Time: 17:15:26
(UTC+00:00)

Cosmos 2228 Rocket - Pass Details

Date: 25 September 2020
Orbit: 619 x 651 km, 82.5° (Epoch: 30 October)

Event Time Altitude Azimuth Distance (km) Brightness Sun altitude
Exits shadow 02:33:13 33° 12° (NNE) 1,051 4.5 -29.2°
Drops below altitude 10° 02:35:42 10° 10° (N) 2,006 6.1 -28.8°
Sets 02:37:57 0° 10° (N) 2,921 7.0 -28.4°
